Showing default

IRIDIUM 154, 43574

Orbit data source: Space-Track

IRIDIUM 154, 43574 is a payload satellite owned by Iridium (US) in LEO that was launched on Wed, 25 Jul 2018 UTC via an FALCON 9 launch vehicle from the Air Force Western Test Range (AFWTR). Payloads include a variety of satellites, spacecraft, and rockets equipped with specific instruments for various scientific and technological missions. These include communications satellites like Starlink; space stations such as the ISS; scientific satellites like the Hubble; Earth observation satellites from companies like Planet Labs, Umbra, and HawkEye 360; GPS; miniature CubeSats for education and research; and military/defense satellites.

Loading next visibility...
IRIDIUM 154 details
Identifier
43574, 2018-061F
Orbit
LEO
Last TLE update13 hours ago
Origin
Flag of USIridium (US)
ManufacturerNGIS SSG Gilbert
MissionOperational Commercial Communications
Bus & MotorELITEBUS, Unknown motor
Mass860 kg wet, 700 kg dry
Launch date (UTC)
2018-07-25 (6 years ago)
Launch vehicle
FALCON 9
Launch site
Air Force Western Test Range (AFWTR)
Object type
Payload
Rocket body
Debris
Shape & HBRTrap Box + 2 Pan, 9.4 m
Radar Cross Section14.423 m², Large (>1 m²)

Expand to show TLE details & history

TLE from 13 hours ago
0 IRIDIUM 154
1 43574U 18061F   24361.31631913  .00000796  00000-0  27704-3 0  9997
2 43574  86.3965 281.5392 0002210  83.7691 276.3757 14.34217612336315
Epoch: 2024-12-26T07:35Z
Definitive object data (Epoch: 2024-12-26T07:35:29.972Z)
Latitude0.00001°
Longitude72.36685°
Altitude780.543 km
Speed7.464 km/s
True Right ascension18h 46m 09s
True Declination0° 00' 00"
Sunlit
Object was in daylight at TLE epoch
Visualization TLE readout
Latitude-67.68073°
Longitude63.36197°
Altitude804.656 km
Speed7.449 km/s
Apparent Right ascension09h 53m 01s
Apparent Declination-75° 17' 44"
Sunlit
Object is in daylight
Visualization observer readout
Local Sidereal Time20:03:08
Azimuth191.091° SSW
Elevation-52.503°
Doppler factor1
Orbital elements
Apogee altitude776.213 km
Perigee altitude773.051 km
Semi-major axis7,152.769 km
Eccentricity0.000221
Inclination86.3965°
RAAN281.5392°
Arg. of periapsis83.7691°
True anomaly276.35053°
Mean anomaly276.3757°
Eccentric anomaly276.36312°
Mean motion3.58783 °/min
BSTAR0.00027704
Orbital period100.34 mins
Loading maneuver chart data...
Loading historical data...
Loading historical data...
Loading historical data...
Loading historical data...
Loading historical data...
Loading historical data...
Loading historical data...

IRIDIUM 154 Visibility forecast

Observer location: undefined°, undefined

Span
Click to sort rows by Start time (UTC) header in descending order
Start Az.
Max El. time (UTC)
Max El. Az.
Max El.
End time (UTC)
End Az.
5 mins2024-12-27 05:58:16.680Z49.59° ENE2024-12-27 06:00:16.680Z79.638° E19.404°2024-12-27 06:03:16.680Z119.281° SE
8 mins2024-12-27 07:37:16.680Z338.121° N2024-12-27 07:41:16.680Z265.484° W33.963°2024-12-27 07:45:16.680Z206.465° SW
8 mins2024-12-27 18:53:16.680Z147.441° SSE2024-12-27 18:56:16.680Z92.254° ESE34.284°2024-12-27 19:01:16.680Z16.584° NNE
5 mins2024-12-27 20:35:16.680Z252.526° W2024-12-27 20:37:16.680Z281.567° WNW19.227°2024-12-27 20:40:16.680Z322.54° NNW
|